Miscellaneous Local Product
Issued by NWS Hastings, NE

Home | Current Version | Previous Version | Graphics & Text | Print | Product List | Glossary On
Versions: 1 2 3 4 5 6 7 8 9 10 11 12 13 14 15 16 17 18 19 20 21 22 23 24 25 26 27 28 29 30 31 32 33 34 35 36 37 38 39 40 41 42 43 44 45 46 47 48 49 50
000
AXUS43 KGID 281102
MISGRI

GID CWA HOURLY WEATHER ROUNDUP
NATIONAL WEATHER SERVICE HASTINGS NE
600 AM CDT WED JUN 28 2017

NOTE: "FAIR" INDICATES FEW OR NO CLOUDS BELOW 12,000 FEET WITH NO
SIGNIFICANT WEATHER AND/OR OBSTRUCTIONS TO VISIBILITY.

...SOUTH CENTRAL NEBRASKA...

CITY           SKY/WX    TMP DP  RH WIND       PRES   REMARKS
GRAND ISLAND   CLOUDY    64  64 100 NE6       29.72R
HASTINGS       CLOUDY    70  62  76 S6        29.72R
KEARNEY        PTCLDY    64  61  88 CALM      29.73R
ORD            CLEAR     62  58  86 CALM      29.69R
YORK           CLOUDY    68  66  94 S8        29.71S
AURORA         CLOUDY    68  66  95 S5        29.71S
LEXINGTON      CLEAR     62  59  92 CALM      29.74R
HOLDREGE       CLOUDY    66  58  76 W7        29.72R
HEBRON         CLOUDY    74  66  76 S8        29.70F

...NEBRASKA PANHANDLE...

CITY           SKY/WX    TMP DP  RH WIND       PRES   REMARKS
CHADRON        CLEAR     57  49  74 SW13      29.81R
ALLIANCE       CLEAR     52  49  89 W10       29.84R
SCOTTSBLUFF    CLEAR     53  47  79 NW8       29.87R
SIDNEY         CLEAR     52  46  80 NW10      29.89R

...WESTERN AND NORTH CENTRAL NEBRASKA...

CITY           SKY/WX    TMP DP  RH WIND       PRES   REMARKS
VALENTINE      CLEAR     59  53  80 SW9       29.72R
AINSWORTH      MOCLDY    62  56  81 W12       29.71S
ONEILL         CLEAR     59  58  96 SW6       29.68F
BROKEN BOW     CLEAR     59  57  93 CALM      29.72R
IMPERIAL       CLEAR     57  53  86 NW6       29.79R
NORTH PLATTE   CLEAR     56  55  97 NW5       29.75R
MCCOOK         CLEAR     62  60  93 W8        29.76R

...EASTERN NEBRASKA...

CITY           SKY/WX    TMP DP  RH WIND       PRES   REMARKS
NORFOLK        PTCLDY    65  61  87 S10       29.68R
SO SIOUX CITY  CLOUDY    66  65  96 S10       29.65F
TEKAMAH        CLOUDY    66  62  87 S14       29.70R
COLUMBUS       MOCLDY    65  62  90 S8        29.70R
ALBION         CLOUDY    66  62  87 CALM      29.70R
OMAHA EPPLEY   CLOUDY    65  61  87 S20       29.73F
OFFUTT AFB     PTCLDY    65  62  90 S15       29.73F
MILLARD        CLOUDY    65  64  96 SE8       29.73S
LINCOLN        CLOUDY    71  67  87 S15       29.72R
NEBRASKA CITY  CLOUDY    63  63 100 SE21G26   29.76F
BEATRICE       MOCLDY    71  68  90 SE8       29.74F
FALLS CITY     LGT RAIN  67  67 100 E7        29.83F

...NORTHERN KANSAS...

CITY           SKY/WX    TMP DP  RH WIND       PRES   REMARKS
GOODLAND       CLEAR     60  58  92 W3        29.81R
HILL CITY      CLEAR     70  62  76 S13G21    29.74S
NORTON         SUNNY     68  55  64 S9        29.72S
PHILLIPSBURG   CLEAR     73  55  53 S16G29    29.71R
SMITH CENTER   CLEAR     72  57  60 S18G25    29.69R
HAYS           LGT RAIN  68  64  87 S13       29.77F
RUSSELL        LGT RAIN  69  64  84 S13       29.79R
CONCORDIA      MOCLDY    73  68  84 S10       29.72F
SALINA         LGT RAIN  73  68  84 S10       29.79F
TOPEKA         CLOUDY    75  68  78 S16G29    29.83R



USA.gov is the U.S. government's official web portal to all federal, state and local government web resources and services.